User: anonymous   Login
Location: Unspecified
(0.0000°N, 0.0000°E)
Time: 01:03:01
(UTC+00:00)
Language:

STARLINK-5030 - Orbit

View from above orbital plane
View from above orbital plane
View from above satellite
View from above satellite

Ground track
Ground track

The orbit is defined by the following mean orbital elements,

1 55418U          26145.54181977 +.00000000 +00000-0 -19872-3 0 00007
2 55418  69.9992 250.6898 0003177 268.7510  91.3285 14.98342719    00
Epoch (UTC): 25 May 2026 13:00:13
Eccentricity: 0.0003177
inclination: 69.9992°
perigee height: 570 km
apogee height: 574 km
right ascension of ascending node: 250.6898°
argument of perigee: 268.7510°
revolutions per day: 14.98342719
mean anomaly at epoch: 91.3285°

The dashed part of the orbit path shows where the satellite is in the earth's shadow,  

DLR